Location: Montreal
(45.5000°N, 73.5833°W)
Time: 03:22:56
(UTC-05:00)

Vanguard 1 - Pass Details

Date: 24 October 2017
Orbit: 650 x 3834 km, 34.2° (Epoch: 17 November)

Event Time Altitude Azimuth Distance (km) Brightness Sun altitude
Rises 04:51:05 0° 273° (W) 6,257 - -27.2°
Reaches altitude 10° 04:54:50 10° 268° (W) 5,599 - -26.5°
Exits shadow 05:02:34 32° 251° (WSW) 4,607 12.8 -25.2°
Maximum altitude 05:12:13 48° 202° (SSW) 4,333 13.0 -23.5°
Drops below altitude 10° 05:33:48 10° 137° (SE) 6,777 14.8 -19.8°
Sets 05:39:00 0° 132° (SE) 7,600 15.3 -18.8°
